TimeAKST,TemperatureF,Dew PointF,Humidity,Sea Level PressureIn,VisibilityMPH,Wind Direction,Wind SpeedMPH,Gust SpeedMPH,PrecipitationIn,Events,Conditions,WindDirDegrees,DateUTC
12:53 AM,-27.9,-34.1,73,30.74,10.0,Calm,Calm,-,N/A,,Clear,0,2012-11-08 09:53:00
1:53 AM,-29.0,-35.0,73,30.75,10.0,Calm,Calm,-,N/A,,Clear,0,2012-11-08 10:53:00
3:53 AM,-29.9,-9999,N/A,30.76,10.0,Calm,Calm,-,N/A,,Partly Cloudy,0,2012-11-08 12:53:00
4:53 AM,-29.9,-9999,N/A,30.76,10.0,Calm,Calm,-,N/A,,Partly Cloudy,0,2012-11-08 13:53:00
5:53 AM,-31.0,-9999,N/A,30.78,10.0,Calm,Calm,-,N/A,,Partly Cloudy,0,2012-11-08 14:53:00
6:53 AM,-31.0,-9999,N/A,30.79,10.0,Calm,Calm,-,N/A,,Partly Cloudy,0,2012-11-08 15:53:00
7:45 AM,-31.0,-9999,N/A,30.48,10.0,Calm,Calm,-,N/A,,Scattered Clouds,0,2012-11-08 16:45:00
7:53 AM,-31.0,-9999,N/A,30.80,10.0,Calm,Calm,-,N/A,Fog,Scattered Clouds,0,2012-11-08 16:53:00
8:53 AM,-31.0,-9999,N/A,30.81,10.0,Calm,Calm,-,N/A,Fog,Scattered Clouds,0,2012-11-08 17:53:00
9:53 AM,-27.0,-31.0,81,30.80,9.0,Calm,Calm,-,N/A,,Scattered Clouds,0,2012-11-08 18:53:00
10:53 AM,-20.0,-25.1,78,30.79,10.0,Calm,Calm,-,N/A,,Partly Cloudy,0,2012-11-08 19:53:00
11:53 AM,-15.0,-20.9,75,30.78,10.0,Calm,Calm,-,N/A,,Partly Cloudy,0,2012-11-08 20:53:00
12:53 PM,-11.9,-17.0,78,30.76,10.0,Calm,Calm,-,N/A,,Partly Cloudy,0,2012-11-08 21:53:00
1:53 PM,-9.9,-17.0,71,30.76,10.0,Calm,Calm,-,N/A,,Partly Cloudy,0,2012-11-08 22:53:00
2:53 PM,-11.0,-17.0,75,30.74,10.0,Calm,Calm,-,N/A,,Partly Cloudy,0,2012-11-08 23:53:00
3:53 PM,-15.0,-20.9,75,30.74,10.0,Calm,Calm,-,N/A,,Scattered Clouds,0,2012-11-09 00:53:00
4:53 PM,-20.0,-25.1,78,30.74,10.0,Calm,Calm,-,N/A,,Scattered Clouds,0,2012-11-09 01:53:00
5:53 PM,-23.1,-27.0,82,30.73,10.0,Calm,Calm,-,N/A,,Partly Cloudy,0,2012-11-09 02:53:00
6:53 PM,-25.1,-29.9,78,30.72,10.0,Calm,Calm,-,N/A,,Partly Cloudy,0,2012-11-09 03:53:00
7:53 PM,-26.0,-32.1,73,30.71,10.0,Calm,Calm,-,N/A,,Clear,0,2012-11-09 04:53:00
8:53 PM,-27.9,-33.0,77,30.70,10.0,Calm,Calm,-,N/A,,Clear,0,2012-11-09 05:53:00
9:53 PM,-27.9,-34.1,73,30.69,10.0,Calm,Calm,-,N/A,,Clear,0,2012-11-09 06:53:00
10:53 PM,-29.0,-34.1,77,30.66,10.0,Calm,Calm,-,N/A,,Clear,0,2012-11-09 07:53:00
11:53 PM,-24.0,-29.9,74,30.62,10.0,Calm,Calm,-,N/A,,Mostly Cloudy,0,2012-11-09 08:53:00